7 * 24
多渠道服务支持
STARLINK-11562 是 SpaceX Starlink 卫星互联网项目中的一颗低轨卫星,属于第二代 Starlink 卫星(Gen2)。该卫星于2023年发射,旨在为全球用户提供高速、低延迟的宽带互联网服务。相比第一代,Gen2 卫星具备更高性能和更强的通信能力,支持更广的覆盖范围和更稳定的连接。作为 Starlink 网络的重要组成部分,STARLINK-11562 有助于提升偏远地区的网络接入水平,推动全球数字包容性发展。
美国
(US)
| 数据来源 | 国际轨道数据 |
| 星历时间: | 2025-12-21T16:26:16+0800 14小时前 查看轨道信息 |
| 半长轴: | 6734.585km |
| 偏心率: | 0.0002144 |
| 轨道倾角: | 42.999° |
| 近地点辐角 | 276.868° |
| 升交点赤经 | 99.672° |
| 平近点角 | 83.194° |
| 近地点: | 355.004km |
| 远地点: | 357.892km |
| 周期: | 91.670分钟 |
| 每日圈数: | 15.708565 |